Flag for Iran Weather past 2 weeks in Mashhad, Iran

Now
70 °F

Passing clouds.


Feels Like: 70 °F
Forecast: 58 / 72 °F
Wind: 7 mph from Southeast

Location: Mashhad Airport

Current Time: May 22, 2015 at 10:20:32 PM

Latest Report: May 22, 2015 at 9:30 PM


Visibility: N/A

Pressure: 30.07 "Hg

Humidity: 35%

Dew point: 41 °F

Location of MashhadLocation

Historic Weather in Mashhad — Graph

°F

Mashhad temperature yesterday

Maximum temperature yesterday: 86 °F (at 1:00 PM)
Minimum temperature yesterday: 63 °F (at 4:55 AM)
Average temperature yesterday: 73 °F

Past Weeks' High & Low Weather Summary

 TemperatureHumidityPressure
High95 °F (May 15, 4:00 PM)100% (May 9, 12:20 AM)30.18 "Hg (May 9, 12:20 AM)
Low54 °F (May 9, 12:20 AM)9% (May 15, 1:00 PM)29.80 "Hg (May 10, 3:00 PM)
Average72 °F47%30.01 "Hg
* Reported May 7 8:30 PM — May 22 9:00 PM, Mashhad, Weather by CustomWeather, © 2015

Note: Actual official high and low records may vary slightly from our data, if they occured in-between our weather recording intervals... More about our weather records

Advertising

Mashhad weather history for previous 24 hours

 ConditionsComfort  
Time TempWeatherWind HumidityBarometerVisibility
9:00 PM
Fri, May 22
70 °FPassing clouds.7 mph38%30.04 "HgN/A
8:30 PM72 °FPassing clouds.9 mph36%30.04 "HgN/A
8:00 PM72 °FPassing clouds.9 mph38%30.04 "HgN/A
7:30 PM73 °FPassing clouds.14 mph36%30.01 "HgN/A
7:00 PM75 °FPassing clouds.9 mph34%30.01 "HgN/A
6:30 PM75 °FScattered clouds.12 mph34%30.01 "HgN/A
5:55 PM77 °FScattered clouds.14 mph32%30.01 "HgN/A
5:20 PM79 °FScattered clouds.12 mph30%30.01 "HgN/A
4:55 PM79 °FPartly sunny.9 mph30%30.01 "HgN/A
4:30 PM79 °FPartly sunny.12 mph30%30.01 "HgN/A
4:00 PM81 °FScattered clouds.7 mph28%30.01 "HgN/A
3:30 PM81 °FScattered clouds.14 mph30%30.01 "HgN/A
2:55 PM81 °FScattered clouds.7 mph30%30.04 "HgN/A
2:30 PM77 °FScattered clouds.14 mph34%30.04 "HgN/A
2:00 PM77 °FScattered clouds.9 mph34%30.04 "HgN/A
1:30 PM81 °FPassing clouds.12 mph32%30.04 "HgN/A
12:30 PM77 °FPassing clouds.12 mph42%30.04 "HgN/A
11:55 AM77 °FPassing clouds.7 mph42%30.07 "HgN/A
11:30 AM75 °FPassing clouds.7 mph41%30.07 "HgN/A
10:55 AM75 °FPassing clouds.7 mph41%30.07 "HgN/A
10:30 AM73 °FPartly sunny.5 mph44%30.07 "HgN/A
9:55 AM73 °FScattered clouds.7 mph44%30.07 "HgN/A
9:30 AM72 °FScattered clouds.7 mph50%30.07 "HgN/A
8:55 AM66 °FScattered clouds.7 mph68%30.07 "HgN/A
8:30 AM66 °FPartly sunny.7 mph73%30.07 "HgN/A
7:00 AM64 °FScattered clouds.9 mph78%30.07 "Hg5 mi
6:30 AM63 °FPassing clouds.12 mph88%30.07 "Hg5 mi
6:00 AM63 °FPassing clouds.12 mph83%30.07 "Hg5 mi
5:30 AM63 °FPassing clouds.7 mph88%30.07 "Hg5 mi
4:50 AM63 °FPassing clouds.5 mph88%30.07 "Hg5 mi
4:30 AM63 °FSprinkles. Passing clouds.5 mph88%30.07 "Hg5 mi
4:00 AM63 °FPassing clouds.No wind83%30.04 "HgN/A
3:30 AM63 °FPassing clouds.5 mph83%30.04 "HgN/A
2:50 AM61 °FPassing clouds.No wind88%30.04 "HgN/A
2:30 AM61 °FClear.5 mph88%30.04 "Hg10 mi
2:00 AM63 °FClear.5 mph83%30.04 "Hg10 mi
1:30 AM63 °FClear.No wind77%30.04 "Hg10 mi
1:00 AM64 °FClear.No wind73%30.07 "Hg10 mi
12:30 AM64 °FClear.5 mph73%30.07 "Hg10 mi
12:00 AM64 °FPassing clouds.No wind73%30.07 "HgN/A
11:30 PM
Thu, May 21
64 °FPassing clouds.5 mph73%30.09 "HgN/A
11:00 PM64 °FPassing clouds.7 mph73%30.09 "HgN/A
10:30 PM64 °FPassing clouds.5 mph78%30.12 "HgN/A
10:00 PM64 °FPartly cloudy.9 mph78%30.09 "HgN/A
Weather by CustomWeather, © 2015

See weather overviewHow to use our weather pages